This is the latest recevied weather packets stored in our database for station/object HB9HFD-13. If no packets are shown the sender has not sent any weather packets the latest 10 day(s).
| Time | Temp. | Humidity | Pressure | Rain* | Wind** | Luminosity | Snow |
|---|---|---|---|---|---|---|---|
| 1777457520 | 17.78° C | 69% | 1014.7 hPa | 0 mm | - | - | - |
| 1777457220 | 17.22° C | 68% | 1014.7 hPa | 0 mm | - | - | - |
| 1777456920 | 17.22° C | 70% | 1014.7 hPa | 0 mm | - | - | - |
| 1777456620 | 16.67° C | 72% | 1014.7 hPa | 0 mm | - | - | - |
| 1777456319 | 16.67° C | 71% | 1014.7 hPa | 0 mm | - | - | - |
| 1777456019 | 16.11° C | 73% | 1014.8 hPa | 0 mm | - | - | - |
| 1777455719 | 16.11° C | 76% | 1014.8 hPa | 0 mm | - | - | - |
| 1777455418 | 16.11° C | 75% | 1014.8 hPa | 0 mm | - | - | - |
| 1777455118 | 15.56° C | 76% | 1014.8 hPa | 0 mm | - | - | - |
| 1777454818 | 15.56° C | 77% | 1014.8 hPa | 0 mm | - | - | - |
| 1777454518 | 15.56° C | 76% | 1014.8 hPa | 0 mm | - | - | - |
| 1777454217 | 15.56° C | 77% | 1014.8 hPa | 0 mm | - | - | - |
| 1777453917 | 15.56° C | 75% | 1014.7 hPa | 0 mm | - | - | - |
| 1777453617 | 16.11° C | 76% | 1014.7 hPa | 0 mm | - | - | - |
| 1777453317 | 16.11° C | 78% | 1014.6 hPa | 0 mm | - | - | - |
| 1777453016 | 15.56° C | 78% | 1014.7 hPa | 0 mm | - | - | - |
| 1777452716 | 15.56° C | 81% | 1014.5 hPa | 0 mm | - | - | - |
| 1777452416 | 15.56° C | 82% | 1014.5 hPa | 0 mm | - | - | - |
| 1777452116 | 15.56° C | 83% | 1014.5 hPa | 0 mm | - | - | - |
| 1777451815 | 15° C | 86% | 1014.5 hPa | 0 mm | - | - | - |
| 1777451515 | 15° C | 86% | 1014.5 hPa | 0 mm | - | - | - |
| 1777451215 | 15° C | 86% | 1014.5 hPa | 0 mm | - | - | - |
| 1777450914 | 14.44° C | 87% | 1014.5 hPa | 0 mm | - | - | - |
| 1777450614 | 14.44° C | 89% | 1014.5 hPa | 0 mm | - | - | - |
| 1777450314 | 14.44° C | 89% | 1014.6 hPa | 0 mm | - | - | - |
* Rain latest hour (hover to see other rain measurements)
** Current wind speed in m/s (hover to see current wind gust speed)